Simultaneous Nadir Overpasses (SNOs) Predictions

Prediction of SNOs between AQUA and NOAA-19 Satellite Orbit:

Table of predicted SNOs for the next 14.0 days since TLE Epoch: 8/17/2024
Index Date (AQUA) Time (AQUA) Lat,Lon (AQUA) SZA (AQUA ) Date (NOAA-19) Time (NOAA-19) Lat,Lon (NOAA-19) SZA (NOAA-19 ) Distance(km) Time Diff (sec)
1 08/18/2024 10:55:30 -75.69,-164.92 117.24 08/18/2024 10:55:17 -75.67,-164.92 117.25 1.72 13
2 08/18/2024 11:45:00 76.08, 1.54 63.18 08/18/2024 11:46:07 76.10, 3.84 63.18 61.63 67
3 08/20/2024 13:55:25 -75.37, 151.05 116.87 08/20/2024 13:54:16 -75.28, 149.15 116.93 54.22 69
4 08/20/2024 14:44:54 75.71, -42.30 63.50 08/20/2024 14:45:06 75.69, -42.27 63.47 2.67 12
5 08/22/2024 17:44:52 75.63, -87.03 64.13 08/22/2024 17:43:56 75.66, -87.00 64.16 3.36 56
6 08/22/2024 18:34:14 -75.70, 80.44 115.79 08/22/2024 18:34:54 -75.73, 80.47 115.77 2.96 40
7 08/24/2024 21:34:11 -75.67, 35.58 115.10 08/24/2024 21:33:45 -75.67, 35.61 115.10 0.67 26
8 08/24/2024 22:23:34 75.72,-156.92 64.97 08/24/2024 22:24:41 75.74,-156.88 64.99 2.46 67
9 08/27/2024 01:23:29 75.69, 158.24 65.67 08/27/2024 01:23:31 75.68, 158.27 65.67 1.01 2
10 08/29/2024 04:23:22 75.65, 113.43 66.38 08/29/2024 04:22:20 75.65, 113.51 66.39 2.37 62



Historial Predications of SNOs between AQUA and NOAA-19
